GEFSNGP_500_meanwind_180.txt.gz
Wind_Speed
31 31 30 29 27 27 25 24 23 21 20 18 16 15 14 14 13 12 11 12 13 14 15 15 15 14 14 14 14 15 15 15 16 15 14 15 15 15 15 14 14 14 14 15
32 31 31 30 29 28 27 25 23 21 19 18 17 16 15 15 14 13 13 14 15 15 16 16 16 16 16 16 16 16 16 16 16 16 15 15 16 15 15 16 15 15 15 15
33 33 33 33 30 29 28 26 24 22 19 18 17 17 16 16 16 15 14 15 15 17 18 18 17 17 17 18 18 18 18 18 18 17 16 16 16 16 16 16 16 16 16 16
33 34 36 34 32 31 29 28 26 24 22 20 19 18 18 17 17 17 17 17 18 19 19 19 19 20 19 19 19 20 19 18 18 18 18 17 17 17 17 17 17 17 17 17
34 35 36 36 34 33 32 30 28 26 24 22 21 20 19 18 18 18 19 19 20 21 20 20 21 21 21 20 20 20 20 19 19 19 19 19 19 19 19 18 18 18 18 18
35 35 36 35 35 34 33 32 30 28 26 25 23 22 20 19 20 20 21 21 21 22 22 22 23 22 22 22 22 22 21 20 20 21 21 20 20 20 19 19 20 20 20 19
36 36 35 34 34 33 34 32 31 30 28 27 26 24 22 22 23 23 23 23 24 24 25 25 25 24 24 24 24 24 22 20 21 22 22 21 22 22 22 22 22 22 21 21
38 37 36 34 34 34 34 33 32 31 30 29 28 26 26 25 25 26 26 26 27 27 27 26 26 26 25 25 25 24 24 23 23 23 23 23 23 23 24 24 24 23 22 22
39 38 37 36 35 35 35 34 34 33 32 31 30 29 28 28 27 27 28 28 29 28 28 28 27 27 27 26 25 25 24 24 24 24 24 25 24 24 24 25 25 24 23 23
41 40 38 37 36 35 35 35 35 34 34 33 32 31 31 30 30 30 30 30 31 30 29 30 29 29 29 27 26 26 25 26 26 26 26 26 25 25 25 25 25 24 24 24
42 41 40 39 38 36 35 35 34 35 35 35 34 33 34 34 33 32 32 32 31 30 31 30 29 28 28 28 28 27 27 27 27 27 28 26 25 26 26 26 26 26 25 25
43 41 40 39 38 37 36 35 34 33 34 34 35 35 35 35 35 35 34 33 32 31 31 31 30 30 29 29 29 28 28 28 28 28 28 27 26 26 27 27 27 27 26 26
42 41 41 40 38 37 37 36 34 33 33 34 34 35 36 36 36 35 35 33 32 32 32 32 31 30 29 28 28 28 28 28 27 28 27 27 27 27 27 27 26 26 27 27
41 40 40 39 38 37 36 35 34 34 34 34 35 35 36 36 36 35 35 34 33 32 31 31 31 30 29 29 29 29 29 28 28 28 28 28 28 27 27 27 26 26 27 26
40 39 38 38 38 37 36 35 35 35 34 34 34 34 34 34 34 34 34 33 33 32 31 31 31 30 30 30 29 29 29 29 28 28 28 28 28 28 27 27 27 27 27 26
41 39 38 37 37 36 35 35 34 33 33 33 34 34 34 34 34 34 33 33 32 32 32 32 31 31 31 30 30 30 30 29 29 29 28 28 28 28 28 28 28 27 27 27
40 40 38 37 36 36 36 36 35 34 32 32 33 34 34 34 34 33 33 32 31 31 31 31 31 31 31 30 30 30 30 29 29 29 29 29 28 28 28 29 28 27 27 28
38 38 38 36 35 35 35 34 33 33 33 33 33 33 33 33 32 31 31 31 30 30 30 30 30 30 30 30 31 30 30 30 29 29 29 29 29 29 28 28 27 27 27 27
37 36 37 37 36 34 33 32 32 33 34 34 33 33 33 33 33 32 31 30 29 29 29 30 30 30 30 31 31 31 31 30 30 29 29 29 29 29 29 28 28 27 26 27
35 35 34 34 34 34 34 33 33 34 34 35 34 34 33 32 32 32 31 31 30 30 30 30 30 31 31 31 31 31 31 30 30 29 29 29 29 29 27 27 27 26 26 27
32 33 33 33 33 33 33 33 33 32 31 31 30 30 30 31 31 30 30 30 30 30 30 30 30 30 30 30 30 30 30 30 30 29 28 28 28 27 27 27 27 27 27 27
30 30 30 31 31 31 31 32 31 31 30 29 29 29 29 29 29 29 29 30 29 29 29 30 30 30 30 29 29 29 29 29 28 28 28 27 27 27 27 27 27 27 27 27
28 28 27 28 29 29 29 29 29 29 29 28 28 28 28 28 28 28 28 28 28 28 29 29 29 28 28 28 28 28 28 28 27 27 27 26 26 26 26 26 27 27 28 28
26 26 26 26 26 26 27 28 28 27 26 26 26 26 26 26 26 27 27 27 27 27 28 27 27 27 27 27 27 27 27 27 26 26 26 26 26 26 26 26 27 27 27 27
23 24 24 25 25 24 25 25 25 25 25 24 25 25 26 25 25 25 25 25 26 27 27 27 26 26 26 26 26 26 26 26 26 26 26 26 26 26 26 26 26 27 26 26
22 22 23 23 23 23 23 24 24 24 24 24 24 24 24 24 24 23 24 25 25 25 25 25 25 25 25 25 25 25 25 25 25 25 25 25 25 25 25 26 25 25 26 25
20 20 21 21 22 22 22 22 22 22 22 22 23 23 22 22 22 22 23 23 23 23 24 24 23 23 23 23 23 23 23 23 24 24 24 24 24 24 25 25 25 25 26 25

GEFSNGP_500_meanwind_186.txt.gz
Wind_Speed
31 30 29 28 28 26 25 23 20 19 18 16 15 15 15 14 13 12 12 12 11 11 11 12 12 13 13 14 15 15 16 16 16 17 17 16 16 16 15 15 14 14 13 13
32 31 30 29 28 27 26 24 22 20 19 18 17 16 16 15 15 14 14 13 13 13 13 13 14 15 15 16 16 17 18 18 18 18 18 18 17 17 15 16 16 15 15 15
30 30 30 31 29 27 26 25 23 21 21 20 18 17 17 16 16 16 16 16 15 14 15 15 16 17 17 18 18 19 20 20 19 19 19 18 17 18 18 18 17 17 17 16
29 30 31 29 29 28 27 26 25 24 23 21 20 19 18 17 17 18 17 17 17 16 16 17 18 18 19 20 20 21 21 21 20 20 19 18 18 18 19 19 18 17 17 17
30 30 30 31 29 27 27 27 27 26 25 23 22 20 20 19 18 18 18 18 19 18 18 18 19 20 21 22 22 22 21 21 21 21 20 19 19 19 20 20 19 19 18 18
32 30 29 30 28 27 28 29 28 27 26 25 24 23 22 21 20 20 19 19 20 20 20 20 20 21 23 23 23 23 23 22 22 21 20 20 20 20 21 22 21 20 20 19
33 32 30 31 29 27 28 28 28 28 27 26 25 25 24 23 22 22 22 22 23 23 23 22 23 23 24 24 23 23 23 23 23 22 21 21 21 22 22 22 21 21 21 20
34 33 33 33 30 30 29 28 28 28 28 27 27 26 26 25 25 24 24 24 25 24 24 24 24 25 25 25 25 24 24 24 24 24 23 23 23 23 23 23 22 22 22 22
36 35 35 34 31 30 30 30 30 30 30 29 29 28 27 27 27 26 26 26 26 26 25 25 26 27 26 26 26 26 26 26 26 25 25 25 24 24 23 23 23 24 24 24
37 36 35 34 33 32 32 32 32 32 31 31 31 30 29 29 28 28 28 28 28 28 27 27 27 28 28 28 27 28 28 27 26 26 26 26 25 25 24 24 25 25 24 25
38 37 35 35 34 34 34 33 33 32 32 32 32 32 31 30 30 30 30 29 29 29 29 29 29 29 30 30 29 28 27 27 27 27 27 27 27 26 26 25 26 26 26 26
39 38 37 36 35 35 35 34 33 33 33 32 32 32 32 32 32 32 32 32 31 31 31 31 32 32 32 31 30 29 29 28 28 28 28 28 27 27 27 26 26 26 26 26
40 38 38 36 36 36 35 35 34 34 33 32 32 33 33 33 33 33 33 33 33 33 33 33 33 32 32 31 31 31 30 29 29 29 29 28 28 28 28 27 27 27 27 27
39 39 38 37 37 36 36 35 35 34 34 33 33 33 33 33 33 34 34 33 34 34 34 34 33 33 32 32 32 32 31 30 29 30 29 29 28 28 28 28 27 28 27 28
38 38 38 37 37 36 36 36 35 35 34 34 33 33 33 33 34 34 34 34 34 34 34 34 33 32 33 33 33 32 31 30 30 30 30 29 29 29 29 28 28 28 28 29
38 37 37 37 36 36 35 35 34 34 34 34 33 33 33 34 34 34 34 33 33 33 34 34 34 34 34 34 33 32 31 31 31 30 30 30 30 29 29 29 29 29 29 29
37 37 36 35 35 35 35 34 33 33 32 32 32 32 32 33 34 33 33 33 33 33 33 33 33 33 33 33 32 31 31 31 31 31 30 31 31 30 30 30 30 30 29 29
35 35 35 34 34 33 33 33 33 33 32 31 31 31 32 32 32 33 32 33 33 32 32 31 31 31 31 30 30 31 31 31 31 31 31 31 32 31 31 31 31 30 30 30
34 33 33 33 33 32 32 32 32 33 32 32 32 32 31 31 32 32 32 33 33 32 32 31 30 30 30 30 30 30 31 31 31 31 32 32 32 31 31 31 31 31 31 30
32 32 32 32 32 32 32 32 31 30 30 30 31 32 31 31 31 31 32 32 32 32 32 31 30 29 29 30 30 30 31 31 31 32 32 32 32 32 31 31 31 31 31 30
30 30 30 30 30 30 30 31 31 31 30 30 31 31 32 32 31 31 31 32 32 32 32 31 30 30 31 31 31 31 31 31 31 32 31 31 31 31 30 30 30 30 29 29
30 29 29 29 29 28 28 29 29 30 30 31 31 31 30 31 31 31 31 31 32 32 31 31 31 31 32 31 31 31 31 31 31 31 30 30 30 29 29 29 28 28 28 29
28 27 27 27 27 27 27 28 28 29 29 30 30 30 30 30 30 31 30 30 31 30 30 30 30 30 30 30 30 30 30 30 30 30 29 29 29 29 29 28 28 28 28 28
25 26 26 27 27 27 28 28 28 28 28 29 29 29 29 29 29 29 29 29 29 29 29 29 29 29 29 29 29 28 29 29 29 29 29 29 29 29 28 28 28 28 28 28
22 23 24 25 25 26 27 27 28 27 27 27 27 27 27 27 27 27 27 27 27 28 28 28 28 28 28 28 28 28 28 28 28 28 28 27 28 28 27 27 27 27 27 28
21 21 21 22 23 24 25 25 25 25 25 26 26 26 25 25 25 25 26 26 26 26 26 27 27 27 27 27 28 28 28 27 27 26 26 26 26 26 27 27 27 27 27 27
19 19 20 21 21 22 22 23 23 24 24 24 24 24 24 24 24 24 24 24 24 24 25 25 26 26 27 27 26 26 25 25 25 25 25 25 25 25 26 26 26 26 26 26

GEFSNGP_500_meanwind_192.txt.gz
Wind_Speed
30 24 22 22 23 23 25 24 21 20 20 21 22 18 18 18 16 15 15 14 13 13 13 14 15 15 16 17 18 19 20 21 21 21 21 21 20 18 18 17 16 17 17 18
32 29 25 23 23 23 23 24 24 22 21 21 21 22 21 20 18 17 16 15 15 14 14 15 15 16 17 18 19 20 21 22 22 22 22 22 22 20 18 18 18 18 19 19
33 29 28 27 24 24 25 24 24 24 23 23 22 23 23 21 20 19 18 17 16 16 16 16 17 17 18 19 20 21 23 24 24 23 23 23 22 21 20 19 19 19 20 20
33 30 29 28 26 25 25 25 25 24 24 24 25 26 25 23 21 20 19 19 18 17 18 18 18 18 19 20 22 23 24 25 25 25 24 24 22 21 21 21 20 20 20 21
32 30 29 27 26 27 27 27 26 26 27 27 26 26 27 25 23 22 21 20 20 19 19 19 19 20 21 22 23 24 25 25 26 25 25 24 24 22 22 22 21 21 21 21
33 30 28 27 26 25 27 28 28 28 29 29 28 28 28 26 24 23 22 22 21 21 21 21 21 22 22 23 24 25 26 26 26 26 25 25 24 23 23 23 23 23 23 23
35 31 28 27 26 26 28 29 28 28 29 29 30 30 30 27 25 24 22 23 23 23 23 23 24 24 24 25 26 26 26 27 27 27 26 25 25 25 25 25 24 25 25 24
35 32 30 30 28 30 31 31 30 30 29 30 30 30 29 28 27 26 25 24 25 25 25 25 26 26 26 26 26 26 27 28 28 28 28 27 27 27 27 26 26 26 25 25
36 36 35 34 33 33 33 32 31 30 30 30 30 31 30 29 29 28 28 27 27 26 27 27 28 28 27 27 28 28 29 30 30 29 29 29 29 28 27 27 27 27 26 26
37 38 38 37 36 35 34 34 33 31 30 31 31 31 30 30 30 29 29 28 28 28 28 28 29 29 29 29 30 29 30 30 31 31 31 30 29 29 28 28 28 28 28 27
40 40 40 39 38 37 36 35 34 32 32 32 32 31 32 32 32 32 31 30 30 30 30 30 30 31 31 30 30 30 31 32 32 32 32 31 30 30 29 30 30 30 29 29
40 42 42 42 41 39 37 35 34 33 33 33 33 33 33 33 33 33 33 34 34 34 33 33 33 33 31 32 32 33 33 33 33 33 32 32 32 31 30 30 30 30 30 30
41 42 41 41 41 39 37 36 35 35 34 34 34 34 34 34 34 35 35 35 35 35 35 35 35 35 34 34 35 35 35 34 34 33 33 33 33 32 32 32 31 31 31 31
39 41 41 40 38 38 37 37 37 37 36 36 36 36 35 35 35 35 36 36 36 36 36 35 35 35 35 35 35 36 35 35 35 34 34 34 33 33 33 33 32 31 32 32
40 39 40 40 39 39 38 38 38 38 38 38 37 37 36 36 36 36 35 35 36 36 35 35 35 35 35 35 35 35 35 35 35 34 34 34 33 33 33 33 32 33 33 32
40 40 40 39 39 38 37 38 38 39 39 39 38 38 37 37 37 36 35 36 36 35 35 35 35 35 36 36 35 35 35 35 35 35 34 34 34 34 34 34 34 33 32 33
39 40 40 40 39 39 38 37 38 39 39 39 38 38 37 37 37 36 36 36 36 36 36 36 36 37 37 37 37 36 36 35 35 35 34 34 33 33 34 34 34 34 34 34
39 39 39 39 38 38 37 37 37 38 38 38 38 37 37 36 36 36 36 36 36 37 37 37 37 36 37 37 37 36 36 36 36 35 34 33 32 32 33 34 34 34 34 34
39 39 39 39 39 38 37 36 37 37 36 36 36 36 36 36 36 36 35 36 37 37 37 37 37 37 37 37 36 36 36 35 35 34 33 33 33 33 33 34 34 34 34 33
38 39 38 38 38 38 37 35 35 35 35 35 35 35 35 35 35 35 35 36 36 35 35 36 36 36 36 35 35 34 34 34 33 33 33 33 33 33 33 34 34 34 33 33
34 35 36 35 35 35 35 35 34 33 33 33 33 33 33 33 33 34 34 34 34 34 34 33 34 34 34 34 33 33 33 33 33 33 33 33 33 33 33 33 33 33 33 32
31 33 34 34 34 34 33 32 33 33 32 32 32 32 32 32 33 33 33 34 33 33 33 33 33 33 34 34 34 33 33 33 33 33 33 33 33 33 33 33 33 32 32 32
29 31 33 33 33 33 32 32 32 32 33 33 33 33 33 33 33 33 33 33 33 33 34 34 34 34 34 33 33 33 32 32 33 33 33 33 33 32 32 31 31 31 31 31
28 28 30 30 31 32 32 31 31 32 33 33 32 32 33 33 33 33 33 33 33 34 34 33 33 33 33 33 33 33 32 32 32 33 33 33 33 32 31 31 31 31 31 31
27 28 29 29 29 30 30 30 30 31 31 31 32 33 33 32 32 33 33 33 33 33 33 32 32 32 32 32 32 32 31 31 31 31 31 31 30 30 30 30 30 30 30 30
23 24 26 27 28 28 29 29 29 30 30 31 31 31 31 31 31 31 32 32 32 32 31 31 31 30 29 28 29 29 29 29 29 30 29 29 28 28 28 28 28 28 29 29
22 23 24 25 26 27 27 27 28 29 30 30 30 30 30 30 30 30 30 29 29 28 28 28 27 26 27 27 28 28 28 28 28 28 27 26 27 26 26 27 28 28 29 29

GEFSNGP_500_meanwind_198.txt.gz
Wind_Speed
35 33 31 29 27 26 26 26 26 24 22 19 17 17 15 13 12 11 10 10 10 11 10 11 11 11 11 12 13 14 15 17 18 18 19 20 20 20 18 15 15 15 14 13
36 35 34 33 30 28 27 26 27 27 25 22 19 18 16 15 15 14 13 12 12 12 12 13 13 12 12 13 14 15 17 18 18 19 20 21 21 20 19 17 16 15 15 15
36 36 36 37 33 30 29 29 28 28 26 24 23 22 19 19 17 16 15 14 14 14 14 14 14 14 15 15 15 16 17 18 19 19 20 21 21 20 19 18 17 16 16 16
37 36 39 37 34 32 31 29 29 29 28 27 25 24 23 22 21 19 18 16 16 16 16 17 18 17 17 17 17 17 18 19 20 20 20 21 21 21 20 20 19 19 18 18
38 38 39 38 36 34 33 31 30 30 29 28 27 26 25 24 23 22 20 19 19 19 19 20 19 19 19 20 19 18 19 20 20 21 21 21 22 21 21 21 21 20 20 20
40 39 40 38 37 35 35 35 32 31 30 30 29 28 26 25 25 24 23 23 22 22 21 21 22 21 21 23 21 20 21 21 22 22 22 23 23 23 23 22 22 22 21 21
41 40 40 38 37 37 38 37 33 32 31 31 31 29 29 28 27 27 26 26 25 24 24 23 23 23 23 23 22 22 22 22 23 23 24 24 25 26 25 24 23 23 22 22
41 40 39 37 37 38 37 35 34 33 33 32 31 30 31 30 29 28 27 27 27 26 25 24 24 24 24 23 24 24 24 24 25 25 25 26 26 27 27 27 25 25 24 23
40 40 37 36 36 36 36 35 35 34 33 32 32 31 30 30 29 29 28 27 27 26 26 25 25 25 25 25 25 25 26 26 27 27 27 27 27 27 28 27 27 27 26 24
41 41 39 37 36 37 36 36 35 35 34 34 33 33 31 29 28 28 29 29 29 28 28 28 27 27 26 27 27 27 28 28 28 28 28 28 28 28 28 28 27 26 27 27
41 41 40 39 37 35 34 35 36 37 36 35 35 33 31 29 27 28 29 29 30 29 29 29 29 29 29 29 29 29 29 30 30 30 30 29 30 30 29 29 29 28 28 28
41 41 41 39 38 36 35 35 35 36 36 36 36 35 33 31 31 31 30 31 31 31 32 32 31 31 31 31 31 31 31 32 32 32 31 31 31 31 30 29 29 29 28 28
41 41 42 41 40 39 38 38 37 37 37 36 36 35 35 34 34 33 32 32 33 34 34 34 33 32 32 32 33 33 33 33 33 33 33 33 33 32 31 30 30 30 30 30
41 42 43 43 41 40 40 39 39 38 37 37 36 35 35 35 34 34 33 33 34 34 34 34 34 33 33 33 34 34 34 34 34 34 33 34 34 33 32 32 31 31 31 31
42 41 41 40 40 39 38 38 38 38 36 36 36 36 36 35 34 33 33 33 34 35 35 35 35 34 34 34 34 34 34 34 34 34 34 33 33 32 33 33 32 32 31 32
39 40 40 40 40 39 38 37 37 37 36 35 35 36 35 35 35 35 34 34 35 35 35 35 35 35 34 34 34 34 34 34 34 34 34 34 34 34 34 33 33 32 32 32
38 39 40 39 38 38 38 36 36 36 36 36 35 35 35 35 35 35 35 35 35 34 35 35 35 35 34 34 35 35 35 35 35 35 34 34 34 34 34 33 33 33 32 32
35 35 36 36 35 35 34 33 33 34 34 35 36 35 35 36 35 35 35 36 35 34 34 34 34 34 35 35 35 35 36 36 35 35 35 35 35 35 34 34 33 33 33 32
31 32 33 33 33 33 33 34 34 34 35 36 37 36 36 36 35 35 35 35 35 34 34 34 34 34 35 35 35 35 35 35 35 35 35 35 35 34 34 33 33 33 33 32
32 33 34 33 33 33 34 34 34 34 35 35 35 35 34 34 34 35 35 35 34 34 34 34 34 35 35 35 35 35 34 34 34 34 33 34 34 34 33 33 32 32 32 33
31 32 33 32 32 33 34 34 35 34 34 34 33 33 33 33 34 34 34 34 33 33 33 33 34 34 34 34 34 33 33 34 33 33 33 33 33 33 33 32 32 32 32 31
31 31 32 33 33 33 33 34 35 35 34 33 34 33 33 33 33 32 32 32 32 32 32 33 33 33 33 33 33 33 33 33 33 33 33 33 33 32 32 32 32 31 31 30
29 29 30 31 31 31 32 32 33 33 33 33 33 33 32 32 32 32 31 31 31 32 32 32 32 32 32 32 32 32 32 32 32 32 32 32 32 32 32 32 31 30 30 30
26 27 28 29 30 30 30 29 29 29 30 30 30 30 31 31 31 31 31 31 31 30 31 31 31 31 31 31 31 31 31 32 32 32 31 31 31 31 31 30 30 30 30 30
25 26 27 27 28 28 28 29 28 28 28 28 28 28 29 30 30 29 29 29 29 29 30 30 30 30 30 30 30 31 31 31 31 30 29 29 29 29 29 29 29 29 29 28
23 25 25 26 26 26 26 26 26 27 27 27 27 27 28 28 28 27 27 27 28 29 29 28 28 28 28 29 29 29 29 29 29 28 29 29 29 29 28 28 28 27 27 26
20 21 22 23 23 23 23 23 24 24 25 26 26 26 25 25 26 26 26 26 26 27 26 26 26 26 27 28 28 28 27 27 27 27 27 27 27 26 27 27 27 27 27 27

GEFSNGP_500_meanwind_204.txt.gz
Wind_Speed
33 32 33 35 34 33 32 31 30 28 26 22 19 17 16 15 15 14 13 12 11 11 10 10 11 11 11 12 12 12 13 14 16 17 18 19 19 20 19 19 19 17 16 15
34 34 34 34 34 34 34 33 32 30 28 24 22 21 19 18 17 17 15 14 13 12 12 12 12 13 14 13 14 14 15 16 17 18 19 19 19 20 20 19 19 18 16 16
35 35 35 36 35 35 34 33 33 31 28 26 24 22 21 20 19 18 16 15 14 13 13 13 13 14 15 16 16 16 16 18 19 19 20 20 20 20 20 20 19 19 18 18
35 35 37 36 35 35 35 34 33 32 30 28 26 24 23 21 20 19 17 17 16 16 15 15 15 15 16 17 17 18 18 19 20 20 20 21 21 21 21 21 21 20 20 20
37 37 38 37 36 35 35 35 34 33 31 29 27 26 24 22 21 19 19 19 18 18 17 18 18 17 17 18 19 19 20 20 21 21 21 21 22 22 23 23 23 22 22 22
39 39 40 37 35 35 35 35 33 33 32 30 29 28 25 24 23 22 21 22 21 20 20 20 21 20 20 20 20 21 21 22 22 22 22 23 23 23 24 24 24 24 24 24
40 40 40 37 36 34 35 35 33 33 32 32 30 29 27 27 25 25 24 23 23 23 23 23 23 23 22 22 22 22 22 24 23 23 23 24 24 24 25 25 25 25 25 25
40 41 39 37 36 35 34 33 33 32 32 32 31 30 29 28 27 27 26 25 24 24 24 24 25 25 25 25 24 23 24 25 25 25 25 25 25 25 26 26 27 27 27 26
40 40 38 37 37 36 35 35 34 33 32 33 33 32 32 31 30 29 28 27 26 26 26 27 27 26 26 26 26 26 26 27 27 27 27 27 27 27 27 28 29 29 29 28
40 40 39 38 37 36 36 36 36 35 34 33 34 33 33 32 32 31 30 29 29 28 28 29 28 27 27 28 28 28 28 28 28 28 28 29 29 29 30 30 30 30 29 28
39 39 39 39 38 38 37 36 36 36 35 34 34 34 34 33 33 33 32 31 31 31 30 29 29 29 30 29 29 29 29 29 29 29 29 29 30 31 31 31 31 31 30 30
37 38 38 38 38 39 39 38 37 36 35 34 34 34 34 34 35 34 34 33 33 33 32 32 32 32 31 30 30 30 31 31 31 31 31 31 31 32 32 32 33 32 32 31
37 37 38 38 38 37 37 37 37 37 35 34 35 34 34 34 34 35 35 35 34 33 33 32 33 33 32 31 31 31 32 33 33 32 32 33 32 32 32 32 33 33 33 32
38 39 38 38 38 37 36 36 36 37 36 36 35 34 33 33 34 34 34 34 34 34 34 33 33 34 34 33 32 32 32 33 33 33 33 34 34 34 33 33 33 33 33 33
37 38 38 38 38 37 37 36 36 36 37 36 35 35 34 34 34 34 34 34 33 34 34 34 34 34 35 35 34 33 33 33 34 34 34 35 35 35 35 34 34 33 33 34
36 36 35 36 37 36 36 37 37 36 37 37 37 37 36 35 34 34 33 33 33 34 35 35 36 36 35 35 33 33 33 34 34 35 35 36 35 35 35 35 35 35 34 35
35 37 37 37 36 36 37 37 36 37 37 36 36 36 35 34 34 34 35 34 34 35 35 36 36 36 36 34 33 33 33 34 35 35 35 35 34 34 35 36 36 35 35 35
33 34 35 36 36 36 36 36 36 35 36 36 35 35 34 34 34 34 34 34 34 35 35 34 33 34 34 34 33 33 34 34 34 34 34 35 35 35 36 36 36 36 36 36
33 32 33 34 34 33 34 34 35 35 35 34 34 33 32 32 32 33 34 35 35 35 35 34 34 34 34 34 34 34 34 34 34 35 35 35 36 36 36 37 37 37 37 36
31 31 31 32 32 32 32 32 32 33 33 32 31 30 29 30 31 33 34 34 35 35 34 34 34 34 34 34 34 34 34 35 35 35 35 35 35 36 36 36 37 37 37 36
29 30 30 31 32 32 31 31 31 33 33 33 32 31 31 31 32 33 33 34 35 35 34 34 34 34 35 35 35 35 34 34 35 35 35 35 35 35 35 35 35 36 35 35
26 28 29 29 31 31 30 29 29 30 31 30 30 31 31 31 32 33 33 34 33 33 33 33 33 34 34 34 34 34 34 34 34 34 34 34 34 34 34 33 33 33 33 33
23 24 26 27 28 29 29 29 28 28 28 30 30 30 31 31 31 30 30 31 31 31 31 31 32 31 31 32 32 32 32 32 32 33 33 33 33 33 33 32 32 32 31 31
22 23 25 26 27 28 29 29 29 29 30 31 31 30 30 30 29 28 28 28 28 29 29 29 30 30 30 30 30 31 31 31 31 31 32 32 32 32 31 31 30 31 30 29
20 22 24 26 27 28 28 28 28 29 30 30 30 29 28 27 27 27 27 28 28 28 29 29 29 30 30 29 30 30 30 31 31 31 31 31 31 30 30 29 29 29 28 28
18 20 21 22 23 24 25 26 26 28 28 29 28 27 27 26 26 26 26 27 27 28 28 28 29 29 29 29 29 30 30 30 30 31 31 30 30 30 29 28 27 27 28 28
17 17 18 19 19 20 21 22 23 23 23 23 23 24 24 24 24 25 25 25 25 26 26 26 27 27 27 28 29 28 28 28 29 29 29 29 29 28 28 27 27 27 26 26

GEFSNGP_500_meanwind_210.txt.gz
Wind_Speed
31 30 29 29 29 29 29 27 25 23 23 20 19 17 16 16 15 14 14 13 12 12 12 12 11 11 11 11 12 12 12 12 13 13 14 15 16 17 17 18 17 17 18 18
32 31 31 31 30 30 30 30 29 27 25 22 21 20 18 18 18 17 16 16 15 15 15 14 14 14 13 14 14 14 14 15 15 15 15 16 17 18 18 19 19 19 19 19
31 32 31 33 31 31 31 31 30 29 27 25 24 22 21 21 20 19 19 18 18 17 18 17 17 16 16 16 16 16 16 17 17 17 17 18 18 19 20 20 20 21 20 20
31 31 32 32 31 31 31 31 31 31 30 29 27 25 24 23 22 22 21 21 20 20 20 20 19 19 18 18 18 18 18 18 18 18 19 19 20 20 21 22 22 22 21 21
32 31 32 32 32 31 31 31 31 32 31 30 29 27 27 25 24 23 23 22 22 22 22 22 21 21 21 20 20 19 19 19 20 20 20 21 21 21 22 23 23 23 23 23
33 31 30 31 32 31 30 31 31 31 30 30 29 29 27 26 26 25 25 24 24 24 23 22 23 23 23 22 21 21 22 21 21 21 21 22 22 22 23 24 24 24 25 25
34 33 32 33 33 32 32 32 31 31 30 30 30 29 28 27 27 27 26 26 26 25 24 24 24 24 24 24 24 24 23 23 23 23 23 24 24 25 25 26 25 26 27 27
34 33 34 35 34 34 34 33 32 32 31 31 31 30 29 29 28 28 28 28 28 27 26 26 25 25 25 25 26 26 25 26 26 26 27 27 27 27 28 28 27 27 27 27
35 35 35 35 34 34 34 33 33 33 32 32 31 31 31 30 30 30 30 30 31 30 29 28 28 28 28 28 28 27 27 28 28 29 29 30 30 30 30 31 30 29 29 28
35 36 36 36 35 35 35 35 34 34 34 34 33 32 31 31 31 31 32 32 31 32 32 30 30 30 30 30 30 30 30 30 30 31 31 32 32 32 32 31 31 31 30 30
36 36 36 36 36 36 36 36 36 35 35 35 35 34 33 32 32 33 33 33 33 32 32 32 32 32 32 32 33 33 33 33 33 33 33 33 33 33 32 32 32 32 31 30
35 35 36 36 37 37 37 37 36 36 36 36 36 35 34 34 33 33 33 34 34 34 34 33 34 34 34 35 35 35 35 35 34 34 34 34 34 34 34 33 33 33 32 31
34 35 35 36 36 36 37 36 36 37 37 36 36 36 36 35 35 35 34 34 35 35 34 34 35 36 37 36 36 37 37 37 35 35 35 35 34 35 35 34 33 32 32 32
34 35 35 35 35 35 35 35 36 36 36 35 35 36 36 36 36 36 36 36 36 35 35 35 36 37 37 37 37 37 37 36 35 34 35 36 35 35 34 34 33 33 33 33
34 34 34 34 34 34 34 34 35 35 35 35 34 35 35 35 35 35 36 36 35 35 35 36 36 36 37 37 36 36 37 37 37 36 36 36 35 35 35 34 34 34 34 34
33 33 33 33 33 32 32 33 33 34 33 33 33 34 35 35 35 35 35 34 34 35 35 35 36 36 37 37 37 37 37 36 36 36 37 36 36 36 35 34 34 35 35 34
33 33 33 33 32 32 31 32 32 32 33 33 33 34 35 36 36 35 34 34 34 35 35 36 36 37 37 37 37 37 37 36 36 36 36 36 36 36 35 35 35 35 35 35
32 32 32 31 31 31 31 30 31 31 31 32 32 32 34 35 35 35 34 35 35 35 36 36 36 36 37 38 38 38 38 36 35 35 35 35 35 36 36 35 36 35 35 35
31 30 31 31 31 30 30 31 31 31 31 31 32 32 32 33 34 35 34 34 35 35 35 35 36 36 36 37 36 36 35 34 34 34 35 34 35 36 36 35 34 35 35 35
30 30 30 30 30 30 30 30 30 30 30 31 30 31 32 32 32 33 33 34 35 34 33 33 33 33 33 33 33 33 34 33 33 33 34 34 34 34 34 34 33 34 34 34
28 29 28 29 29 30 30 30 29 29 29 28 29 30 30 31 31 31 32 32 33 33 32 31 31 32 33 33 33 33 33 33 33 33 33 33 33 33 33 33 33 33 33 34
25 27 28 28 28 28 29 29 29 28 28 28 27 28 29 30 30 30 30 29 30 30 30 31 31 32 33 33 33 33 33 33 33 33 32 32 32 33 33 33 32 33 33 33
22 24 25 26 26 26 26 27 27 28 27 26 26 26 26 27 27 28 27 27 28 29 29 30 31 32 32 32 32 32 33 33 33 33 32 33 32 32 32 32 32 32 33 33
20 22 23 23 24 24 25 25 26 27 26 26 26 26 26 27 28 28 29 29 29 29 30 30 30 31 31 32 32 32 32 31 31 31 32 32 32 32 32 32 32 32 32 32
19 20 21 21 23 24 24 24 24 25 25 25 25 25 26 26 27 28 28 29 29 29 29 29 30 30 31 32 32 31 31 31 31 31 31 32 32 31 30 31 31 31 31 30
15 16 17 17 19 20 21 22 22 23 24 24 24 25 25 26 26 26 26 27 27 28 28 28 28 29 30 30 30 31 30 30 30 31 31 31 31 30 29 30 30 30 30 29
12 13 14 15 17 18 19 20 20 21 21 21 22 22 22 23 22 23 24 24 25 25 26 26 27 28 29 29 30 30 30 30 30 30 30 29 28 28 28 29 29 29 29 29

GEFSNGP_500_meanwind_216.txt.gz
Wind_Speed
27 23 22 22 21 21 22 23 24 23 23 23 20 17 16 17 16 16 16 15 13 12 12 12 12 12 12 12 13 13 13 14 15 15 16 17 18 18 19 19 20 20 20 20
29 27 25 23 23 23 24 23 24 24 24 24 22 22 21 21 21 19 19 17 16 15 15 15 14 14 14 14 15 15 15 15 16 16 17 18 18 19 20 20 21 22 21 21
29 28 26 27 25 24 24 25 26 26 25 23 24 25 25 25 24 21 21 21 20 19 18 18 17 17 17 16 17 17 17 17 17 18 18 19 20 20 21 22 22 23 23 23
29 27 29 28 26 25 24 24 27 28 28 26 27 29 28 28 27 26 24 23 22 23 22 21 21 20 19 19 19 19 19 19 19 20 20 21 21 22 22 23 24 25 25 24
29 28 28 26 27 26 25 27 28 29 29 28 29 30 30 30 29 27 26 26 26 25 24 24 23 23 22 21 21 21 21 22 22 22 22 23 23 23 24 25 26 26 26 26
29 29 28 27 28 27 27 30 30 30 30 30 30 30 31 31 30 29 28 28 27 28 27 26 26 25 25 25 24 24 24 24 24 24 25 25 26 26 27 27 27 27 28 28
30 30 30 30 29 28 30 33 32 33 33 32 33 33 32 31 30 30 29 29 29 29 29 28 28 27 27 26 26 26 26 26 26 26 27 27 28 28 28 29 29 29 29 30
31 31 32 32 31 31 31 32 32 33 33 33 33 33 33 33 31 31 31 31 31 30 30 29 29 29 29 28 27 27 27 28 27 28 28 29 29 29 29 30 31 32 32 32
30 31 33 34 34 32 33 33 33 33 33 34 34 33 33 33 33 33 33 32 32 31 31 32 32 31 31 30 29 29 29 29 29 30 30 30 30 30 31 32 33 33 33 33
33 34 33 32 33 33 33 34 36 36 36 36 36 35 35 35 35 35 34 34 33 33 33 33 33 32 32 32 31 30 30 31 31 31 32 32 33 33 33 33 34 34 34 34
34 35 35 34 34 34 34 35 36 36 36 36 36 36 36 37 36 36 36 35 34 34 35 34 34 33 33 33 34 33 33 33 33 34 34 34 34 35 35 36 35 35 35 35
34 36 37 38 37 36 36 36 36 36 35 36 37 37 38 37 37 37 37 36 35 35 35 35 35 35 35 35 35 34 35 35 36 36 36 36 37 38 38 38 37 37 37 37
35 37 38 37 36 37 37 37 36 35 35 36 37 38 38 38 38 38 38 37 37 37 37 36 36 35 36 37 36 36 36 36 36 37 38 38 39 39 39 39 39 39 38 38
35 35 36 37 36 35 36 36 36 36 36 36 37 37 38 38 38 39 39 38 38 37 37 36 36 36 37 37 37 37 37 37 37 38 39 39 39 40 39 39 38 38 39 39
35 35 35 36 36 36 37 38 38 38 38 38 38 38 37 37 38 38 38 38 38 38 38 37 37 36 36 36 36 37 37 37 38 38 38 39 39 39 39 39 39 39 39 38
38 38 38 37 36 36 36 37 38 38 37 36 36 36 35 35 36 36 36 37 37 37 37 38 37 36 36 36 35 36 37 38 38 38 38 39 39 39 40 40 39 39 38 37
37 36 36 36 36 36 36 36 36 35 35 35 34 34 35 35 35 34 35 36 37 37 37 37 37 37 36 35 35 36 36 37 37 38 38 38 38 38 37 37 37 37 36 36
36 36 37 37 36 35 34 34 34 34 33 33 33 34 34 35 35 34 35 35 36 36 36 36 36 36 36 36 35 36 37 37 37 36 36 36 36 36 36 36 36 36 36 37
33 34 34 34 34 34 33 32 32 32 32 32 32 32 32 33 33 33 33 33 33 34 34 34 34 34 34 34 35 36 36 35 35 35 34 34 35 36 36 36 36 36 36 36
30 30 31 32 31 32 32 31 31 31 30 30 30 30 30 31 31 32 32 32 32 33 33 34 34 34 34 34 34 35 35 35 35 34 34 34 35 35 36 36 36 35 35 36
28 28 28 29 29 29 29 30 30 30 29 30 30 29 29 29 30 30 31 31 32 32 32 32 32 33 33 34 34 34 34 33 33 32 33 34 34 35 35 35 35 35 36 36
27 27 28 29 29 29 28 27 28 28 29 29 29 29 28 28 29 30 30 30 30 31 32 32 32 32 33 33 32 32 32 32 32 32 32 33 33 34 34 34 34 35 36 36
24 25 26 27 29 29 28 27 26 27 27 27 27 27 27 28 28 28 28 28 29 30 30 30 30 30 31 31 31 31 31 32 32 32 32 32 33 33 34 35 36 37 37 37
21 21 23 25 27 27 27 27 26 26 26 26 26 26 26 27 26 26 26 27 28 28 29 29 28 29 29 30 30 31 31 31 32 32 32 33 34 34 35 36 36 37 37 36
19 19 20 20 21 23 24 25 26 26 25 25 25 25 24 24 25 24 25 27 27 28 28 27 27 27 28 29 30 31 31 31 31 32 32 33 34 35 36 36 36 37 37 36
15 15 16 17 18 20 21 22 23 23 23 22 23 23 24 24 24 24 25 25 25 25 25 25 26 27 28 28 29 30 30 31 31 33 34 35 36 36 36 36 36 36 35 35
12 12 13 14 15 16 17 19 19 19 19 18 20 21 21 21 21 22 22 23 23 23 24 25 26 26 27 27 27 28 29 31 32 34 35 35 36 36 36 35 35 34 33 33

GEFSNGP_500_meanwind_222.txt.gz
Wind_Speed
29 29 29 28 27 26 25 24 24 23 21 20 19 16 16 15 14 13 13 11 10 9 8 8 7 7 7 7 8 9 9 9 9 9 11 13 14 14 15 15 15 15 16 17
30 31 31 30 28 28 27 26 25 25 25 24 22 21 21 20 18 16 15 15 15 14 13 11 11 11 10 10 11 11 12 12 11 12 12 13 15 15 16 16 16 16 16 17
31 32 32 32 31 30 29 28 28 28 27 25 24 22 23 22 21 20 19 18 17 16 16 15 14 14 14 14 14 14 14 15 15 14 15 15 16 16 16 17 18 18 18 18
31 32 33 31 31 32 32 30 30 30 29 28 25 25 23 23 21 21 19 18 18 18 18 18 17 18 18 18 18 18 18 18 18 17 17 17 18 18 18 19 19 19 20 20
31 32 33 32 32 32 33 32 32 31 30 27 26 27 26 24 23 22 20 19 19 20 21 21 21 21 21 22 21 21 21 20 20 20 20 20 21 20 20 21 21 21 22 22
32 32 32 32 32 32 32 32 32 31 29 28 27 28 27 26 25 24 23 22 22 22 22 23 23 24 24 24 24 24 24 24 23 23 23 23 23 23 23 23 24 24 24 24
33 33 33 32 31 30 31 31 29 30 30 29 29 28 27 28 28 28 26 26 26 25 25 26 26 26 26 26 26 27 27 27 27 27 26 26 26 25 25 26 27 27 27 27
33 34 33 32 32 31 31 30 30 30 29 29 29 29 29 30 29 29 29 29 29 28 28 29 29 28 28 29 29 29 30 30 29 29 28 29 29 29 28 28 29 29 29 29
32 32 32 32 32 32 33 33 33 32 32 31 31 32 32 33 33 32 31 31 32 31 30 30 31 31 31 31 31 31 31 32 32 31 31 31 32 31 31 30 30 30 30 30
32 31 32 32 32 33 34 34 34 35 35 33 33 34 35 34 34 33 33 33 33 33 33 32 32 32 33 33 33 33 33 33 33 33 32 33 33 32 32 32 32 32 32 31
32 31 31 31 31 32 32 32 34 35 35 35 36 36 36 35 35 34 33 33 34 35 34 34 34 34 34 34 33 33 33 33 33 34 34 34 33 33 34 34 34 33 33 33
32 31 31 31 32 32 32 32 34 35 35 36 37 37 36 37 36 36 35 35 36 36 36 36 36 35 35 35 34 34 33 33 34 34 34 34 34 35 36 35 35 34 33 33
33 33 34 33 33 34 34 35 36 36 36 37 38 38 39 39 38 38 38 38 37 37 37 37 36 36 36 36 35 35 35 34 34 34 34 34 34 35 35 34 35 35 35 36
35 35 35 36 36 36 37 37 38 38 39 39 39 39 39 40 40 40 40 38 38 37 37 36 36 36 36 36 36 35 35 35 34 34 34 33 33 33 34 34 34 35 35 35
35 36 36 37 38 38 39 39 38 39 40 39 39 39 39 40 40 39 38 37 36 36 36 36 36 36 36 36 36 36 35 35 34 34 33 33 33 33 33 34 34 34 35 35
35 35 36 37 38 37 37 37 38 38 38 39 39 38 38 37 35 35 35 36 35 35 35 35 35 35 36 36 36 35 35 34 34 34 34 34 34 34 35 35 35 35 35 35
34 35 35 35 35 35 35 35 35 36 37 37 38 38 36 36 35 35 34 34 34 34 34 34 34 35 35 35 35 35 34 34 34 34 34 34 34 34 34 35 35 36 36 35
33 33 34 34 34 34 32 32 33 34 34 33 34 34 34 34 33 33 33 32 33 33 33 33 34 35 34 34 34 34 33 33 33 34 34 35 35 35 35 35 35 35 35 34
29 31 32 33 33 33 33 32 32 32 32 31 31 31 30 30 30 31 31 31 30 30 30 32 32 33 33 33 33 33 33 33 33 34 34 34 34 35 36 35 35 35 35 35
27 29 29 30 31 31 31 30 30 30 30 29 29 30 30 30 29 29 29 30 30 31 32 32 31 31 32 32 32 32 33 33 33 33 33 33 33 34 34 35 34 35 35 34
25 26 27 27 28 28 28 27 27 28 28 28 28 28 27 28 27 27 27 28 28 29 29 29 29 29 29 30 31 31 32 33 33 33 33 32 32 32 33 33 33 33 33 34
24 24 24 25 26 26 26 27 27 27 27 26 26 24 25 25 25 24 24 25 25 25 26 27 27 28 29 29 30 31 32 33 32 31 31 31 31 32 32 33 33 33 33 33
22 23 23 23 24 24 25 25 25 26 25 25 24 24 23 23 22 22 23 23 24 24 25 26 26 27 28 29 29 30 31 30 30 30 30 31 32 32 32 32 32 32 31 32
20 21 22 21 22 23 23 23 23 23 23 23 23 22 22 21 22 22 23 23 24 24 25 25 26 26 27 27 27 27 27 28 28 29 30 31 32 31 31 31 31 32 32 32
16 16 16 17 17 18 19 20 20 20 20 21 21 20 20 20 21 21 22 22 22 23 23 24 25 25 25 26 25 26 26 26 27 28 29 31 31 30 30 30 30 31 32 32
14 14 14 15 15 15 16 17 17 17 17 18 18 18 18 19 20 20 21 21 21 21 22 22 23 24 24 24 25 25 25 25 26 27 27 28 28 29 30 30 31 31 31 32
13 14 13 13 14 14 15 15 15 15 16 16 17 17 18 18 19 20 20 21 21 21 21 21 21 21 22 22 22 23 24 25 26 27 27 27 28 28 29 29 29 29 29 30

GEFSNGP_500_meanwind_228.txt.gz
Wind_Speed
28 30 31 30 30 29 28 27 26 24 22 19 18 18 18 18 17 15 13 12 12 12 13 13 13 13 13 13 13 13 12 12 12 12 12 12 12 13 14 14 14 15 15 15
27 28 30 31 32 31 30 29 28 26 24 23 21 20 19 18 17 17 15 15 16 15 15 16 16 16 16 15 15 15 15 14 14 14 13 13 14 15 15 16 16 17 17 17
28 27 28 31 31 31 31 30 29 28 26 24 24 22 20 20 19 19 19 19 19 18 18 18 18 18 18 18 18 18 18 18 16 16 16 16 17 18 18 18 19 19 20 20
29 29 30 29 29 30 31 31 30 29 27 26 25 24 23 22 22 22 22 21 20 20 20 21 21 21 21 21 21 21 20 19 19 19 20 20 21 21 21 22 22 22 22 22
31 31 31 29 28 28 29 30 30 29 28 27 27 27 26 24 23 23 23 23 23 23 23 23 23 24 24 24 24 22 22 22 22 23 23 24 24 24 24 24 24 24 24 25
31 31 31 28 28 28 29 29 29 29 29 28 29 28 27 27 26 26 26 26 25 24 25 26 26 26 26 27 27 25 25 25 25 26 26 26 27 27 27 27 27 27 27 27
32 32 31 29 28 28 29 28 29 29 29 29 30 31 31 30 28 27 27 26 27 27 27 28 28 28 29 29 29 29 28 28 28 29 29 29 30 30 30 30 30 31 30 30
32 33 32 30 30 29 29 29 29 29 30 30 30 31 31 30 29 28 28 28 29 29 30 30 30 31 31 31 31 31 30 30 31 31 31 32 32 32 32 33 33 33 32 32
32 32 31 30 30 30 30 31 30 30 30 31 31 31 31 31 31 31 31 30 30 31 32 32 33 33 32 32 32 32 32 33 33 34 34 33 33 33 33 33 33 33 31 31
32 31 31 30 31 31 31 31 32 32 32 32 33 33 33 33 33 32 32 32 32 33 33 34 34 34 34 33 32 33 33 33 34 35 35 34 33 33 33 32 32 33 31 31
31 31 31 31 31 31 30 30 31 32 33 34 35 34 35 35 34 33 33 33 34 34 34 35 35 35 35 35 35 33 33 33 33 34 34 34 33 33 33 33 34 34 33 33
31 31 31 32 32 31 31 31 31 31 32 34 34 34 35 35 34 34 34 35 35 35 35 36 35 35 35 35 35 34 34 33 33 33 33 33 33 33 34 35 35 35 34 33
31 31 31 31 31 31 31 30 31 32 33 34 34 35 36 37 37 37 36 36 36 36 36 36 36 35 34 34 35 35 35 34 34 34 34 34 34 34 35 35 35 34 34 35
30 30 30 31 31 32 32 31 32 32 33 33 34 35 37 38 37 38 38 37 36 36 36 36 35 35 35 36 36 36 36 36 36 36 36 35 35 35 34 34 34 33 34 35
29 30 31 31 32 32 32 32 32 32 32 33 34 35 36 38 38 38 37 36 36 36 36 36 36 35 36 36 37 37 37 37 37 37 36 35 35 35 35 35 34 34 34 35
29 30 31 31 32 32 32 32 32 33 33 33 34 35 36 37 37 37 37 36 37 37 37 36 36 36 36 36 36 36 37 37 36 36 36 36 36 35 34 34 35 35 35 35
29 29 30 31 32 32 33 32 32 32 32 33 34 35 35 35 35 35 35 35 36 36 36 36 36 36 36 35 35 36 36 36 35 35 36 36 36 35 35 35 35 35 35 36
28 29 29 29 31 32 32 32 31 31 32 32 33 34 34 34 34 34 34 35 36 36 36 36 35 35 35 34 34 34 34 34 35 35 35 35 35 36 35 34 35 35 35 36
27 27 27 27 29 30 30 31 31 31 31 32 33 32 32 32 33 33 33 34 35 34 34 34 34 34 33 33 33 33 33 34 34 34 34 35 36 36 35 34 35 36 36 36
25 25 25 26 26 28 28 29 30 31 30 31 31 30 30 30 31 32 32 32 32 33 33 33 33 33 32 32 32 32 32 32 33 33 34 34 34 35 34 33 34 34 34 35
22 22 23 23 24 25 27 27 28 29 30 30 29 28 29 29 29 30 30 30 30 30 30 30 31 31 30 30 30 30 31 31 31 32 32 32 33 33 33 33 33 34 34 35
21 21 21 22 22 23 24 25 25 26 27 27 27 27 27 26 27 28 28 26 26 27 27 27 27 28 28 28 28 28 29 29 29 30 31 32 32 32 33 33 33 33 34 34
19 20 20 21 21 22 22 23 24 24 24 25 24 24 23 23 24 25 24 24 24 24 23 24 24 25 26 26 27 27 28 29 29 30 30 30 30 31 32 32 32 32 33 33
17 18 19 19 20 20 21 21 21 21 21 22 22 22 22 23 23 24 24 22 21 21 22 22 22 23 24 25 25 27 27 27 27 27 28 29 29 30 31 32 31 32 32 33
16 17 17 18 18 18 19 19 19 19 20 20 20 21 21 22 22 21 21 21 20 20 20 21 22 22 23 23 24 24 25 25 26 27 28 28 29 30 30 30 30 30 31 31
14 14 15 16 16 17 17 17 18 18 18 18 19 19 19 19 19 20 20 20 19 20 20 20 21 21 22 22 22 23 24 25 25 26 27 28 29 28 28 28 29 29 30 31
13 14 15 15 16 16 16 16 17 17 17 17 18 18 18 18 18 18 18 18 19 20 20 20 20 20 21 22 22 23 24 25 26 26 27 28 28 27 27 28 29 30 31 31

GEFSNGP_500_meanwind_234.txt.gz
Wind_Speed
29 28 27 28 28 28 28 27 25 23 21 20 19 17 16 16 16 17 16 16 17 16 15 14 14 14 14 14 15 15 15 15 15 14 14 15 15 16 16 16 16 15 16 16
30 29 28 29 29 28 28 28 28 26 24 22 21 20 19 18 18 19 19 18 17 17 17 16 16 17 17 17 17 18 17 17 18 17 18 18 18 18 18 18 17 16 16 17
28 28 29 30 29 29 29 28 27 26 26 24 23 22 21 20 21 21 21 19 19 19 19 19 19 19 19 20 20 21 20 20 21 20 21 21 21 21 20 20 20 18 18 18
28 28 29 28 28 29 29 28 28 28 26 25 24 23 22 21 21 21 21 21 21 21 21 21 22 22 22 23 23 23 24 24 24 24 24 24 24 24 23 23 22 20 20 21
28 28 28 28 28 28 29 29 28 28 27 26 24 24 24 23 23 24 24 24 23 23 23 23 24 24 25 26 26 27 26 26 26 26 27 28 27 26 25 26 25 25 24 24
28 27 27 28 28 27 28 30 29 29 29 28 27 26 26 25 25 26 26 26 26 26 26 26 26 26 27 27 27 28 28 28 29 29 30 30 29 29 28 28 28 29 29 28
28 27 28 30 27 26 27 28 27 28 29 29 29 29 28 27 28 28 29 29 29 29 28 28 28 28 29 29 29 29 30 30 31 31 31 31 30 30 30 30 30 31 31 30
27 27 28 28 27 27 28 27 27 27 28 29 29 29 29 30 30 31 31 32 32 31 31 31 31 31 30 31 31 31 32 32 32 32 33 32 32 32 32 33 33 33 33 33
29 29 28 27 26 27 27 28 28 28 29 29 30 31 31 32 33 33 33 34 34 34 34 34 33 33 33 33 33 33 33 33 33 33 34 35 34 34 34 34 35 35 35 34
30 30 29 28 28 29 28 28 29 29 30 30 32 32 33 34 33 34 35 35 35 35 35 35 35 35 35 35 35 35 34 34 35 35 35 36 35 35 35 36 35 35 35 35
30 29 29 29 29 29 29 29 29 29 30 31 31 32 33 33 33 34 35 36 35 36 36 36 36 36 36 37 37 37 37 37 37 36 36 37 37 37 37 37 37 36 35 36
30 30 29 28 27 28 29 29 29 29 29 30 30 32 33 33 33 34 35 36 36 36 37 37 37 37 37 38 38 38 38 38 38 37 37 38 38 38 38 38 38 37 37 37
29 29 28 28 28 29 29 29 30 31 31 30 31 31 32 33 33 33 34 35 36 36 37 36 37 37 38 39 39 39 38 38 38 38 38 38 38 38 37 37 37 37 39 39
28 29 29 29 28 28 28 29 29 30 30 29 30 31 32 33 33 34 34 35 35 34 34 35 36 37 37 38 38 38 38 38 38 38 38 38 37 38 38 37 38 38 38 39
27 28 28 28 28 28 28 29 29 29 29 29 30 31 31 32 33 34 34 35 35 35 35 36 36 37 37 38 38 38 38 37 37 37 37 37 38 38 39 39 39 39 38 38
26 26 27 27 27 28 28 28 29 29 28 29 30 31 32 32 32 33 33 33 34 35 36 36 36 37 38 38 38 38 37 37 37 37 37 38 38 38 39 39 39 39 38 37
25 25 25 25 26 26 28 28 29 29 29 29 30 30 31 32 32 32 33 34 35 36 36 36 36 36 36 36 37 37 37 36 36 36 36 36 36 36 36 36 37 36 36 36
24 24 24 25 25 27 27 28 28 29 29 29 29 30 31 32 32 32 33 34 34 34 33 34 35 35 35 35 36 36 36 36 36 35 35 35 36 36 36 36 36 36 35 35
23 24 24 24 24 25 26 27 27 28 28 29 29 29 30 30 31 32 33 34 34 34 33 33 33 34 34 34 34 34 34 34 34 34 33 33 34 34 34 33 33 32 32 33
22 23 23 24 24 25 25 25 26 27 28 28 28 28 28 29 30 31 32 32 32 32 32 32 32 32 32 32 32 33 32 32 31 31 31 30 31 31 31 31 31 31 32 32
20 21 21 22 22 23 24 25 25 26 26 26 26 26 26 26 27 28 28 28 29 30 30 30 30 30 31 31 31 30 30 29 29 29 29 29 29 30 30 30 31 32 32 32
18 18 19 20 20 21 21 22 22 22 22 22 22 23 24 24 24 25 26 26 27 27 27 27 27 28 28 28 28 27 27 26 27 28 29 29 29 29 30 31 31 32 32 31
17 17 17 17 18 19 20 20 20 21 21 21 21 22 22 22 23 23 23 24 24 24 24 25 25 25 25 24 25 25 25 26 27 27 28 28 29 29 30 31 31 31 31 31
15 15 16 16 17 18 18 18 19 19 19 20 21 21 21 21 21 21 21 20 20 21 21 21 22 23 23 24 24 25 25 26 26 27 28 28 29 29 29 30 30 30 30 31
15 15 15 16 17 17 17 17 17 18 19 19 19 20 19 20 20 20 19 19 18 19 20 20 20 21 22 23 23 23 24 24 24 25 26 27 28 29 29 29 29 30 30 31
14 14 14 15 15 16 16 17 17 17 17 18 18 18 19 19 19 19 19 18 18 19 19 19 20 20 20 21 22 22 23 23 23 24 25 26 27 28 28 29 29 30 30 31
14 14 14 14 15 15 15 16 16 16 16 16 16 17 18 18 17 18 18 18 18 19 19 20 20 19 20 21 21 21 22 23 24 25 25 26 26 27 28 28 28 29 29 30

GEFSNGP_500_meanwind_240.txt.gz
Wind_Speed
29 25 23 24 25 24 25 25 25 26 26 24 22 20 19 19 18 18 18 18 19 18 17 17 17 17 17 15 15 15 15 15 15 15 15 15 15 15 15 15 16 16 17 18
32 28 25 25 24 23 23 23 25 28 28 27 25 23 22 21 20 19 19 19 20 19 19 19 19 19 19 18 18 17 18 18 18 18 18 18 18 18 18 18 18 18 18 19
31 29 27 29 26 25 24 24 25 26 27 29 26 24 24 23 21 21 21 22 23 22 21 20 20 20 20 20 20 20 20 20 21 21 21 21 21 21 21 21 21 21 21 22
29 28 29 29 25 25 25 26 27 28 30 30 26 25 25 24 23 23 23 23 22 21 22 22 22 21 21 22 22 22 22 22 23 24 24 23 24 24 23 24 24 23 24 24
29 28 28 28 27 27 28 29 29 29 30 30 28 27 27 25 24 24 24 24 23 23 24 25 25 24 24 25 25 25 25 25 25 26 26 26 26 26 26 27 27 27 26 26
28 27 27 27 27 27 27 30 29 29 30 31 29 28 27 27 27 26 25 25 25 25 25 26 27 27 27 27 27 28 28 27 27 28 28 28 28 29 29 29 29 29 29 29
29 28 27 27 28 28 28 28 29 29 30 31 29 29 28 29 28 28 27 27 27 27 27 28 28 29 29 29 29 30 30 30 30 31 30 30 30 31 31 32 32 32 32 31
29 28 29 29 29 31 31 29 29 28 29 30 30 28 28 30 30 29 29 29 29 29 29 30 31 31 32 32 32 33 32 33 33 33 32 32 32 32 33 34 34 34 34 34
29 29 31 30 30 31 31 30 30 30 29 29 29 30 29 29 30 30 30 30 31 32 32 32 32 32 33 33 34 34 33 33 34 34 34 34 34 34 34 35 35 36 36 36
30 32 31 32 30 30 30 29 29 30 29 28 28 29 30 30 30 30 31 31 32 32 33 34 34 33 33 34 34 34 34 34 35 35 35 35 36 36 36 36 36 37 37 37
31 33 33 31 30 29 30 30 29 29 29 29 29 29 29 30 30 31 32 33 33 33 34 35 35 35 35 36 36 35 35 35 35 35 36 36 37 37 37 37 37 37 38 38
31 31 32 32 30 31 31 31 31 31 31 31 30 30 31 32 32 32 33 34 34 35 36 36 36 37 37 37 37 37 36 36 36 37 37 37 38 38 38 37 38 38 39 40
30 31 31 32 32 32 33 32 31 31 32 31 31 31 32 32 33 34 34 35 35 36 37 37 37 37 37 37 36 36 36 37 38 38 38 38 38 38 38 38 39 39 39 39
29 30 31 31 31 31 32 32 31 30 31 31 31 32 32 32 33 34 35 35 35 36 36 37 37 37 36 36 36 36 36 37 37 38 38 38 38 39 39 39 39 39 39 39
29 30 31 30 30 30 30 29 30 30 30 31 31 32 33 33 34 34 35 34 35 35 36 35 35 35 36 36 36 37 38 38 38 38 39 39 39 39 39 39 39 39 39 38
29 30 30 30 31 31 30 29 29 30 30 31 31 32 32 33 33 33 33 33 34 34 34 34 34 35 36 37 37 38 38 38 38 38 38 38 38 38 38 38 39 39 38 37
27 28 29 29 30 30 30 29 29 29 30 31 31 32 32 32 32 32 32 33 33 33 33 33 34 34 35 35 36 36 37 37 37 37 36 36 37 37 37 37 37 36 36 36
26 26 27 27 27 27 27 28 28 28 29 30 30 30 31 31 31 31 32 32 33 33 32 33 33 33 34 35 35 36 36 36 36 37 37 35 35 35 34 34 34 34 35 35
24 24 24 25 26 25 25 26 27 27 28 28 29 29 29 30 30 30 30 31 31 32 32 32 32 33 33 33 33 34 35 35 35 36 36 34 33 33 33 33 33 34 34 34
21 22 22 23 23 23 24 24 25 25 26 27 28 29 29 29 29 30 30 31 31 31 31 31 32 32 32 32 33 33 33 33 33 33 33 33 33 33 33 33 32 33 34 34
20 21 21 22 22 22 22 23 23 24 25 25 26 27 28 28 29 29 30 31 30 30 30 31 31 31 31 32 32 33 32 32 32 32 32 32 32 32 32 33 33 34 34 34
18 18 19 19 20 21 21 21 22 23 23 24 25 26 26 27 27 27 29 29 29 29 30 30 30 31 31 30 30 31 31 31 31 32 32 32 31 32 32 32 32 31 31 32
16 16 17 17 18 19 20 20 21 22 22 23 24 24 24 24 25 25 26 27 27 28 29 28 29 29 30 30 30 30 29 29 30 30 30 31 32 32 32 32 31 31 32 32
15 15 16 17 17 18 19 20 21 22 23 23 23 23 23 23 24 25 25 25 25 26 27 27 27 27 27 28 27 27 28 29 29 30 30 30 30 31 31 31 31 31 32 32
13 15 16 16 17 18 18 19 19 20 21 22 22 22 22 22 23 23 24 24 24 24 25 25 24 24 24 24 25 25 25 26 27 28 28 28 28 29 29 29 30 30 30 30
13 14 14 15 15 15 16 17 18 19 19 19 19 20 20 20 21 22 22 21 22 21 21 22 22 22 22 23 24 24 24 24 25 26 26 27 27 28 29 29 29 29 28 29
11 12 13 13 13 14 15 16 16 17 17 17 17 18 18 19 20 20 20 20 20 20 21 22 23 23 23 23 22 22 23 24 24 24 25 25 26 26 27 28 28 27 27 27

GEFSNGP_500_meanwind_246.txt.gz
Wind_Speed
31 30 29 29 29 28 27 28 28 27 25 22 21 19 18 17 16 16 15 15 14 14 15 15 14 14 14 14 14 14 14 15 14 14 14 14 14 14 15 15 16 16 16 17
32 31 30 29 29 27 26 27 28 27 26 24 22 21 21 20 19 18 17 16 16 17 17 16 16 15 16 16 16 16 16 16 16 16 16 16 16 16 17 17 17 18 18 19
33 32 32 32 30 29 29 28 27 28 27 25 26 24 23 23 22 20 19 18 17 18 19 18 17 17 17 18 18 18 18 18 18 19 19 20 20 20 20 19 19 20 20 20
33 33 34 30 30 30 30 29 29 28 27 26 25 26 24 24 25 23 22 21 20 20 19 18 19 20 20 19 20 21 21 21 21 22 23 23 23 23 23 23 22 22 23 24
32 33 34 32 30 29 30 31 30 28 28 28 26 26 26 25 25 25 25 23 23 23 22 21 22 22 22 22 22 22 22 23 24 24 25 25 25 25 25 25 25 25 26 26
33 33 33 32 31 31 31 32 30 29 29 28 28 28 27 25 25 25 24 24 24 23 23 23 24 24 23 24 24 25 25 26 27 27 27 27 27 28 28 28 28 28 28 28
33 33 33 31 32 31 32 32 31 31 30 29 29 28 27 26 26 25 25 25 26 25 24 24 25 25 26 26 26 27 27 27 28 28 28 28 29 29 30 30 31 31 31 31
32 33 32 30 31 31 32 32 31 31 30 29 28 27 26 25 26 26 26 26 26 25 25 25 25 26 26 27 28 28 28 28 29 29 30 30 30 30 31 32 33 33 33 33
31 31 30 30 30 30 31 32 31 29 29 27 26 26 26 26 26 26 27 27 28 28 27 27 28 28 27 27 28 29 30 30 30 31 31 31 31 32 33 33 34 34 34 34
30 30 30 30 29 30 31 31 30 29 29 27 27 26 25 26 26 26 27 29 29 29 28 29 30 30 29 29 29 29 30 31 32 32 32 33 33 34 34 34 34 35 35 35
29 29 30 29 29 29 29 30 30 28 27 27 26 25 25 25 26 27 28 28 28 29 29 30 30 30 30 30 30 31 31 32 33 34 34 34 34 34 34 35 35 35 35 36
29 29 30 30 30 29 28 28 28 29 29 28 26 25 24 25 26 27 28 29 29 29 30 30 30 31 32 32 32 32 32 33 34 34 34 34 35 35 35 36 36 36 35 35
28 28 28 27 27 27 27 26 26 27 27 27 27 27 26 26 26 27 28 28 27 28 30 31 31 32 32 33 33 33 34 34 34 34 35 35 35 35 35 35 36 36 36 36
26 26 26 26 25 25 25 25 25 25 25 26 26 27 27 27 27 28 28 28 28 29 29 31 31 32 32 33 34 35 35 35 35 34 35 36 36 35 35 35 35 35 35 35
24 24 24 25 25 25 24 24 24 25 26 25 26 27 28 28 28 29 29 29 29 30 30 31 32 32 33 34 35 34 34 34 34 34 34 34 35 34 34 34 34 34 34 34
23 23 23 23 23 23 23 24 24 24 25 26 27 28 28 28 29 29 29 30 31 31 31 31 32 33 33 33 33 33 33 33 33 32 32 33 33 33 33 34 34 34 34 34
22 22 23 23 22 22 22 22 23 25 25 26 26 27 27 27 28 29 29 29 30 29 30 31 31 31 31 32 32 32 32 33 33 33 33 32 32 33 32 32 33 33 33 33
20 21 22 21 21 22 22 23 23 22 22 23 24 24 25 26 26 27 27 27 28 29 29 30 31 30 31 31 31 31 32 32 32 32 32 33 33 33 33 33 33 33 33 33
18 19 20 20 22 22 22 22 21 21 21 23 24 24 25 25 25 26 26 27 27 28 29 29 30 30 30 31 31 32 32 32 32 33 33 33 33 33 33 33 33 33 33 33
15 17 18 19 20 21 21 20 21 21 22 23 24 24 24 24 25 25 25 26 26 27 28 29 29 29 30 30 31 31 32 32 33 33 32 32 32 32 32 32 32 33 32 32
14 16 17 17 18 18 19 19 20 21 22 23 23 23 23 24 25 26 26 26 26 27 28 28 28 28 29 29 30 31 31 31 31 31 31 31 32 32 32 32 32 32 32 32
14 15 16 17 17 17 17 18 19 19 19 21 21 22 22 23 24 25 26 26 26 27 27 27 28 27 27 27 28 29 30 30 30 30 30 30 31 31 31 31 32 32 32 32
13 13 14 15 15 15 16 17 18 18 19 20 21 22 22 23 23 24 24 24 24 25 25 26 26 26 25 25 25 26 26 27 28 28 29 30 30 30 31 31 31 31 31 31
12 13 13 14 15 15 16 16 17 17 19 19 20 20 21 21 22 23 23 24 24 25 25 25 24 24 24 24 24 25 25 25 26 27 28 29 29 29 29 30 30 31 31 31
11 12 12 13 14 15 15 16 16 17 18 19 19 20 21 21 22 22 23 23 23 23 24 24 23 23 23 23 24 24 25 25 26 26 27 27 28 29 29 30 30 30 30 30
10 11 11 12 12 13 13 14 15 16 17 17 18 19 20 21 21 21 21 22 22 22 22 22 22 22 22 23 24 24 25 25 26 27 27 27 28 29 29 29 29 29 29 30
9 9 10 11 11 12 12 13 14 15 16 16 17 17 18 19 19 20 20 20 20 21 21 21 21 21 21 22 24 24 25 26 26 27 27 28 28 29 29 29 28 28 28 28

GEFSNGP_500_meanwind_252.txt.gz
Wind_Speed
31 32 32 32 31 31 31 30 30 28 26 24 22 20 19 19 19 18 17 17 17 18 18 18 17 16 15 15 15 16 16 15 16 16 16 16 16 16 17 17 17 18 18 18
31 32 33 33 32 31 31 30 29 29 27 25 24 23 21 21 21 20 19 20 19 20 20 20 19 18 18 18 18 18 18 19 19 19 18 18 19 19 20 20 20 21 21 21
30 30 31 33 32 31 31 29 28 29 27 26 26 25 24 24 23 22 22 22 22 22 22 22 21 21 20 21 21 21 21 21 21 22 22 22 22 22 23 23 24 24 24 23
31 31 32 30 30 31 31 31 30 29 28 28 28 27 26 25 25 24 24 23 23 23 24 24 24 24 23 23 23 23 24 23 23 23 23 24 25 25 26 26 26 26 27 26
31 31 31 30 29 29 30 31 31 30 29 29 28 29 27 27 26 26 25 25 25 25 26 26 24 24 25 24 24 24 24 23 24 24 25 25 26 27 27 27 28 28 29 29
31 31 31 29 29 29 29 30 29 30 30 29 29 30 28 27 27 27 26 27 26 26 26 26 25 25 25 26 26 26 26 25 25 25 25 26 26 27 28 29 30 30 31 31
31 31 30 29 29 28 29 28 27 29 30 30 30 30 28 28 28 27 27 28 28 27 27 27 26 26 27 28 28 28 28 26 26 27 27 27 28 28 29 30 31 31 32 31
31 31 30 28 28 29 29 28 28 29 29 30 30 30 29 29 29 28 28 29 28 28 27 27 27 27 27 29 30 30 29 27 28 28 28 29 29 29 30 31 32 32 32 32
30 30 28 28 28 29 30 29 29 30 29 30 30 29 29 28 28 28 29 29 29 29 28 28 28 28 28 29 30 31 30 29 29 29 30 30 31 31 32 32 32 33 33 34
29 29 29 28 28 29 30 30 29 30 30 30 30 31 30 29 28 27 28 28 29 28 27 28 28 29 29 30 30 31 31 30 29 30 31 31 32 33 33 34 34 33 35 35
29 29 29 29 29 29 30 29 29 29 29 28 29 29 29 29 28 28 28 28 28 28 28 28 29 30 30 32 32 32 32 31 30 30 31 32 33 33 34 34 34 34 34 35
29 29 29 28 29 29 29 28 28 28 28 28 28 28 27 27 27 27 27 27 27 28 29 30 31 31 32 32 32 32 31 31 31 31 32 33 34 34 34 34 34 35 35 35
29 29 28 28 28 28 28 28 28 26 26 26 26 25 25 25 25 26 26 26 27 28 30 31 31 31 31 31 31 31 31 31 32 32 33 33 34 35 35 35 35 36 36 37
27 28 28 27 27 26 26 24 23 23 24 24 23 24 25 24 24 25 25 26 27 27 28 28 29 29 30 31 31 32 32 32 33 33 34 34 35 35 35 35 36 37 37 37
24 24 24 25 24 24 23 22 21 21 21 22 22 23 23 24 24 24 25 25 26 26 26 26 27 28 29 30 31 32 33 33 34 34 34 35 35 35 35 36 37 37 37 37
21 21 21 21 21 20 20 20 20 20 20 20 21 21 21 22 23 23 25 26 26 26 26 27 28 28 29 30 31 33 33 34 34 34 34 35 35 34 35 35 35 36 36 37
19 19 20 20 20 20 20 20 20 21 21 21 20 20 21 21 22 23 24 24 25 25 27 28 28 28 29 30 32 32 32 33 33 34 33 34 33 34 34 34 34 35 35 36
17 17 18 19 19 20 20 19 19 20 20 21 20 20 21 21 21 22 22 23 24 25 26 27 28 29 30 31 31 31 32 32 33 34 33 33 33 33 34 34 34 35 35 35
16 16 16 17 17 18 19 19 19 19 19 20 20 21 22 22 22 22 23 23 23 24 24 25 26 27 29 30 30 31 31 32 32 32 33 34 34 34 34 35 36 36 36 35
15 16 16 16 16 16 16 17 18 19 19 19 19 19 20 21 21 21 22 22 23 24 24 24 25 25 26 27 27 28 29 29 30 30 31 31 32 33 33 34 35 35 35 35
15 15 16 16 16 16 16 16 17 17 18 18 18 19 20 20 21 22 22 23 23 24 24 24 24 25 25 25 26 27 28 28 29 30 30 31 31 32 32 33 34 34 34 34
14 15 15 15 15 16 16 16 16 16 17 17 18 18 18 19 20 21 22 23 23 23 23 23 23 23 24 25 27 28 28 29 29 30 30 30 31 31 31 32 32 33 33 34
12 13 13 13 14 15 15 16 16 17 17 17 18 18 19 19 20 21 22 22 23 23 23 23 23 24 25 26 26 27 28 28 29 29 29 29 30 30 30 31 31 32 32 32
11 11 12 12 13 14 15 15 16 16 16 17 17 18 18 19 19 20 21 21 21 21 22 23 24 25 26 26 26 26 27 28 28 28 29 29 29 29 30 30 31 31 31 31
9 10 11 11 12 12 12 13 14 14 15 15 16 17 17 18 19 19 20 20 20 21 21 22 23 24 24 25 26 26 26 26 27 28 28 28 29 29 30 30 30 30 30 30
7 8 9 10 10 11 11 11 12 13 13 14 15 15 16 17 17 17 18 19 19 20 21 22 22 23 24 25 26 26 27 27 28 28 28 29 29 29 29 29 29 29 30 30
7 8 8 9 9 10 10 11 11 12 12 13 13 14 15 15 15 16 17 18 19 20 21 22 23 23 24 25 26 26 27 27 28 29 29 29 29 29 29 29 29 29 30 30

GEFSNGP_500_meanwind_258.txt.gz
Wind_Speed
28 29 29 29 29 29 29 28 27 25 24 22 21 21 21 21 21 21 20 19 18 18 17 18 18 18 18 19 19 18 18 18 18 18 18 18 18 18 18 18 18 18 19 20
28 28 28 28 28 29 29 28 27 26 25 24 24 23 23 22 22 22 22 22 21 20 20 20 20 21 21 20 20 20 20 20 20 20 20 19 20 20 20 20 20 21 21 22
27 28 28 29 28 28 28 28 28 28 27 26 26 25 25 24 23 23 22 23 23 23 23 22 22 23 22 22 22 22 23 22 22 22 22 22 23 22 22 22 23 23 23 23
28 29 30 29 28 29 29 29 29 29 28 27 26 26 26 26 26 25 24 24 25 25 25 24 24 23 23 24 25 25 25 24 24 23 24 24 25 25 25 25 25 25 25 25
27 28 29 30 29 28 29 30 29 29 29 28 27 26 26 27 27 27 27 27 28 27 27 26 25 25 25 26 26 25 25 25 25 26 26 26 27 27 27 27 27 27 27 26
28 28 28 29 27 27 28 30 29 29 29 28 28 28 27 27 28 28 28 29 30 30 29 27 26 26 26 26 26 26 27 28 28 27 26 27 27 27 27 28 28 28 28 29
28 29 29 29 27 26 28 28 28 29 29 29 29 29 29 29 29 29 29 30 30 30 30 28 27 28 27 27 27 27 28 29 29 28 27 27 28 28 29 29 30 30 30 30
28 28 28 28 27 27 27 27 28 28 29 29 29 30 30 30 30 29 29 30 30 30 29 29 29 29 29 29 29 29 29 29 28 28 28 29 29 30 31 30 31 31 31 32
28 28 27 26 26 26 26 26 27 28 28 29 29 30 30 30 30 31 31 31 30 30 30 30 30 30 30 30 30 29 28 27 28 29 30 31 31 32 32 32 33 33 32 32
26 26 25 26 26 26 26 26 26 26 26 27 28 29 30 30 30 31 31 31 30 30 30 31 31 30 30 31 30 29 28 29 30 31 31 32 33 33 33 34 34 33 33 33
25 25 24 24 25 25 26 26 26 26 26 27 28 29 29 29 29 30 31 31 31 31 32 32 31 31 31 30 29 29 30 31 31 32 33 33 33 34 34 34 34 33 34 35
25 25 24 24 24 24 25 26 26 25 26 27 27 27 27 28 29 29 30 30 30 29 29 30 30 30 30 31 31 31 32 32 32 32 33 33 34 34 34 35 35 34 34 35
24 25 24 24 25 24 25 25 25 25 25 25 25 26 26 26 26 26 26 27 28 29 29 29 30 31 32 33 33 32 32 32 32 33 33 33 34 34 34 34 34 34 34 34
22 23 23 24 24 24 24 24 24 24 23 23 24 24 24 23 23 24 25 25 26 27 28 29 30 31 32 32 32 31 31 31 32 33 33 34 34 33 33 33 33 33 33 33
21 22 22 23 23 23 23 23 22 22 21 22 22 22 23 23 22 23 24 25 25 26 27 28 29 30 30 31 31 30 30 30 31 32 33 33 33 32 32 33 33 33 33 33
18 19 20 20 21 22 22 21 21 21 21 21 21 21 22 22 23 23 25 25 25 26 26 27 27 28 28 29 28 28 28 29 29 31 31 31 32 32 32 32 33 33 33 34
17 17 18 19 19 19 19 20 20 20 20 20 20 20 21 22 23 24 24 25 25 25 26 26 26 26 26 26 27 27 28 29 30 30 31 31 31 31 32 32 33 33 33 34
15 15 15 15 17 17 17 17 17 17 18 19 19 20 20 20 21 23 24 24 24 24 24 24 24 25 26 26 27 28 28 29 29 29 30 30 30 30 30 31 33 33 34 35
15 16 16 16 16 16 16 17 17 17 17 17 18 18 19 20 20 21 22 22 23 23 23 23 24 25 25 26 27 28 28 28 29 29 28 28 29 29 30 31 32 32 33 34
15 16 16 16 16 16 16 16 17 17 17 17 17 18 19 19 20 21 21 21 21 21 22 22 23 25 26 26 27 27 27 28 28 28 29 29 29 30 30 31 31 32 32 33
15 15 15 15 15 16 16 17 17 17 18 18 18 18 19 19 19 19 20 20 20 21 21 22 23 24 24 25 26 26 27 27 27 28 28 29 30 31 31 32 33 33 33 34
14 14 15 15 15 15 15 16 16 17 17 17 17 18 18 19 19 19 20 20 21 21 22 22 23 23 24 25 25 26 26 26 27 27 28 29 30 30 31 32 32 32 32 33
12 13 14 14 14 15 15 15 15 16 16 16 16 16 17 18 19 19 19 20 21 21 21 21 22 23 24 24 24 25 25 26 27 27 28 28 30 30 31 31 31 31 31 32
10 10 12 13 13 14 14 13 14 14 14 15 15 15 16 17 18 18 19 19 19 20 20 21 22 22 22 23 24 25 26 26 27 28 29 30 30 30 30 31 31 31 31 31
9 10 10 11 12 12 13 14 14 14 14 14 15 15 16 16 17 17 18 18 19 20 20 21 21 22 22 23 24 25 26 27 28 28 29 29 29 30 30 30 30 30 31 32
8 8 9 10 10 11 11 12 12 13 14 14 15 15 15 15 15 15 16 17 18 18 19 19 20 21 23 24 24 25 26 27 28 28 28 29 29 29 30 30 30 30 31 31
7 7 8 8 9 9 9 10 10 11 12 13 13 13 14 14 14 14 15 15 16 16 17 18 19 20 21 22 23 24 25 26 27 27 28 28 29 30 30 30 30 30 30 31

GEFSNGP_500_meanwind_264.txt.gz
Wind_Speed
27 26 25 25 24 24 24 25 24 24 26 26 26 24 23 21 22 23 22 22 22 22 21 21 19 19 19 19 19 19 19 19 19 20 20 20 20 19 19 19 19 19 19 20
27 26 25 26 26 26 26 25 25 26 28 28 29 26 24 23 24 24 24 23 23 24 23 22 22 21 21 21 21 21 21 21 21 21 22 22 21 22 21 21 21 21 22 22
26 25 25 27 26 26 27 25 27 29 30 29 28 27 26 26 26 25 24 24 24 24 24 24 23 23 24 24 23 23 23 23 23 23 23 23 23 23 24 24 25 24 24 24
26 26 27 26 26 27 28 28 29 30 30 31 31 29 27 28 27 26 25 26 26 25 25 24 25 25 25 24 24 24 23 23 23 23 24 24 25 25 26 26 26 25 25 25
27 26 27 27 27 26 27 30 30 31 31 31 32 31 29 28 28 28 27 27 27 26 25 24 25 25 24 25 25 25 25 24 24 25 25 25 25 26 26 27 27 27 27 27
27 26 26 28 28 27 28 30 30 31 32 32 32 32 30 29 28 29 29 29 29 27 26 25 25 25 26 27 27 28 27 27 27 27 27 27 27 27 28 29 28 28 28 29
28 26 26 26 27 27 30 31 30 31 31 31 32 33 31 31 30 30 30 30 29 29 28 27 27 28 28 28 28 29 29 30 29 28 29 29 29 30 30 30 30 30 30 30
26 27 27 27 27 28 29 28 28 30 31 31 32 33 33 31 30 30 31 31 31 31 30 29 30 30 30 29 29 30 30 30 30 30 31 31 31 30 30 30 30 31 32 32
27 28 28 28 28 29 29 29 29 30 31 32 33 32 32 31 30 30 31 32 32 32 31 30 30 30 30 30 31 31 31 31 32 32 33 32 31 31 31 31 32 32 33 33
26 26 27 26 27 29 30 29 28 30 30 31 32 32 32 32 31 31 32 32 32 32 32 31 31 31 31 31 31 31 32 32 32 33 33 32 32 32 33 32 32 33 33 33
26 25 27 26 26 28 28 27 29 30 31 32 32 32 33 32 32 32 32 32 31 31 31 31 30 30 30 31 31 31 32 32 32 32 32 33 34 33 33 33 32 33 33 33
26 26 27 26 25 27 26 27 28 28 29 30 29 30 30 29 30 31 31 29 29 30 30 30 30 29 30 30 31 30 31 32 32 33 33 33 34 34 34 34 34 33 33 33
24 26 26 26 26 26 26 26 26 27 27 28 28 28 28 28 30 31 30 29 28 28 28 28 29 29 30 29 29 30 31 31 33 33 34 34 34 34 34 35 34 32 32 33
23 23 23 24 24 25 25 25 25 25 25 26 26 26 26 27 28 28 28 27 26 26 26 26 27 28 29 30 30 31 31 32 32 33 33 34 34 34 33 34 34 34 33 33
22 21 21 22 23 24 24 24 24 24 24 24 25 24 25 26 26 26 26 25 24 24 25 26 27 28 29 30 30 31 32 32 31 32 33 34 33 34 34 34 34 33 33 34
22 22 21 22 22 23 22 22 23 23 23 24 24 24 23 23 23 24 25 24 24 24 25 26 27 28 29 30 31 31 31 31 32 33 34 34 33 32 32 32 33 34 34 33
21 21 21 21 22 22 21 21 22 21 21 23 23 22 22 21 21 22 22 23 23 24 25 27 28 28 29 29 30 29 30 30 31 31 31 32 32 32 31 31 31 32 32 33
20 21 21 21 20 20 21 20 20 20 21 22 21 21 21 20 20 21 22 23 24 24 24 25 26 26 27 28 29 29 29 29 29 28 28 28 28 29 29 30 31 32 33 32
19 20 21 20 19 19 20 19 19 19 18 18 19 20 20 20 20 21 22 23 23 24 24 25 26 26 26 27 28 28 28 29 29 28 28 28 28 28 29 30 31 32 32 33
18 18 19 18 18 18 19 18 18 17 18 18 18 19 19 20 21 21 22 22 22 22 23 25 25 25 25 26 26 27 27 27 28 28 28 28 28 29 30 31 32 32 32 33
17 17 17 17 17 16 17 17 16 16 17 18 18 18 18 19 19 19 20 21 22 23 23 23 24 24 25 25 25 25 26 26 27 27 27 28 28 29 30 31 32 32 33 34
17 17 16 16 16 16 16 16 16 16 16 17 18 18 18 18 18 19 20 20 21 22 22 22 22 22 23 23 23 24 25 25 26 27 27 28 29 29 30 31 32 33 34 35
16 15 15 16 16 16 17 17 17 17 17 17 17 17 17 17 18 19 19 19 19 20 20 20 20 21 22 22 23 23 24 24 25 26 27 28 29 29 30 31 32 33 33 34
15 14 14 15 16 16 16 16 16 16 16 16 17 17 17 17 18 18 19 19 19 19 19 20 20 21 21 22 23 23 24 25 26 27 27 28 29 29 30 31 32 33 33 35
13 13 13 14 14 15 15 15 14 14 14 15 16 16 16 16 17 17 18 18 18 18 19 20 20 21 22 22 23 23 24 25 26 27 27 28 29 30 30 31 31 32 33 33
11 11 12 12 12 13 14 14 14 14 13 13 14 14 14 15 16 17 17 18 18 18 19 20 21 21 22 22 23 23 24 24 25 26 27 28 29 29 30 30 31 32 32 33
11 11 11 11 11 11 12 12 13 13 13 14 13 13 14 15 15 16 17 17 18 19 19 20 21 21 22 22 23 24 24 25 26 27 27 28 30 30 30 31 32 33 34 35

GEFSNGP_500_meanwind_270.txt.gz
Wind_Speed
27 27 27 27 27 26 27 27 27 26 25 23 21 21 20 20 20 20 20 19 18 16 16 16 16 17 17 17 16 16 16 16 16 16 16 15 15 16 16 16 16 17 17 17
28 28 28 29 29 28 29 29 28 27 25 23 23 23 24 23 21 21 21 21 20 19 18 18 18 19 18 19 18 18 18 18 18 18 17 17 18 19 18 18 18 19 19 19
27 28 29 30 29 29 29 30 30 28 25 25 25 25 25 24 23 22 21 22 22 20 20 19 19 20 19 20 21 21 21 20 19 20 20 20 20 19 19 20 20 21 22 22
28 29 30 28 28 29 30 31 30 29 27 27 27 26 25 25 25 25 24 23 22 21 22 22 22 21 22 22 23 23 22 22 22 21 22 22 21 21 21 22 23 24 24 24
29 30 31 29 27 28 30 31 30 29 27 28 28 28 28 28 27 26 26 26 25 24 24 24 24 24 24 24 24 24 24 24 24 23 23 23 24 24 23 24 25 25 26 25
29 30 31 29 27 27 29 30 28 28 28 29 29 29 28 27 26 26 27 27 27 27 26 26 26 26 25 25 25 26 26 26 25 25 25 26 26 26 26 26 27 27 27 27
28 29 29 28 27 27 28 28 27 28 28 28 28 27 27 26 27 27 27 27 27 28 28 28 28 28 27 27 27 28 28 26 26 26 27 27 27 28 28 28 28 28 28 29
27 27 27 26 26 27 27 26 26 27 27 27 27 27 27 27 27 28 28 28 28 28 28 29 29 29 28 28 28 28 28 28 28 28 28 29 29 30 30 30 29 29 30 31
25 25 25 25 25 25 26 26 26 26 27 27 27 27 27 28 28 28 29 28 28 28 29 29 29 29 28 28 30 30 29 28 28 29 29 30 30 30 31 31 32 32 32 33
25 23 23 23 23 24 25 25 25 27 26 26 27 27 27 26 27 26 27 27 27 28 29 29 30 30 30 29 29 29 28 28 28 29 29 30 31 31 32 33 33 34 34 35
24 23 23 22 22 22 23 24 25 26 27 26 25 26 26 25 25 25 26 26 27 27 28 28 29 28 28 28 28 27 27 27 26 28 29 30 31 32 33 32 33 34 35 36
24 23 23 22 21 21 22 23 23 24 25 25 25 25 25 25 24 24 25 25 26 26 27 27 29 29 28 27 27 27 27 28 28 28 29 30 31 32 33 33 33 34 35 36
23 23 23 22 22 21 20 21 22 23 24 25 25 24 25 25 25 25 25 25 25 25 26 27 27 27 27 26 26 27 28 28 29 29 30 30 30 31 32 33 33 34 35 36
24 24 24 23 23 22 21 21 22 22 22 24 25 24 23 24 24 25 25 26 25 24 25 25 25 26 26 26 26 26 26 27 28 29 29 30 31 31 32 33 33 33 34 34
25 25 25 24 22 22 22 22 23 23 23 23 23 23 24 24 24 24 24 25 25 25 25 25 25 24 24 24 24 25 25 26 27 27 29 30 32 32 32 32 32 32 32 33
24 25 24 23 22 22 22 23 23 23 23 23 22 23 24 25 24 23 23 23 24 24 24 24 23 23 23 23 24 25 25 26 27 28 28 29 30 30 30 31 31 31 31 31
21 22 21 22 23 23 23 23 23 22 22 23 23 22 22 22 21 22 22 22 22 22 23 23 22 22 22 22 23 24 25 26 27 27 28 28 28 28 28 29 29 30 30 31
20 21 20 20 21 21 21 20 19 20 21 21 21 20 21 20 20 21 21 21 21 22 22 22 22 22 22 22 23 24 24 25 26 26 27 27 27 27 27 28 28 28 29 29
21 22 21 20 19 19 20 20 20 19 19 20 20 19 19 20 20 19 19 19 20 21 21 21 22 22 22 22 23 23 23 24 24 26 27 27 27 27 28 28 29 29 29 29
19 20 20 20 20 19 19 19 19 19 19 19 19 19 19 18 18 18 18 18 19 19 19 19 20 20 20 21 22 22 23 24 24 25 26 27 27 27 27 27 28 28 29 29
18 18 19 19 19 18 19 19 19 19 19 18 18 18 18 17 17 18 18 18 18 18 18 19 19 19 20 21 22 23 23 23 24 24 25 26 26 26 27 27 27 28 28 29
16 16 16 17 17 17 17 17 17 18 17 17 17 17 18 17 17 18 18 18 18 18 18 18 19 19 20 21 21 22 22 22 23 23 24 25 25 26 27 27 28 29 29 30
14 15 15 15 15 15 15 15 16 15 15 15 15 16 16 16 16 16 16 17 17 17 18 18 19 20 20 20 20 21 21 22 23 23 24 24 25 25 25 26 27 28 29 30
14 13 13 13 14 14 14 13 14 14 14 14 13 14 14 14 14 14 15 16 16 16 16 17 18 19 19 19 20 21 22 22 23 23 24 24 24 25 26 27 27 28 29 30
13 13 12 12 13 13 12 12 12 12 12 12 12 12 13 13 14 14 14 15 15 15 16 17 18 18 19 19 21 22 23 23 24 24 24 25 26 26 27 27 29 29 30 31
12 11 11 11 11 10 10 10 10 10 10 10 10 11 11 12 13 14 14 15 15 15 16 17 18 19 20 21 22 22 23 23 23 24 25 26 26 26 27 28 29 30 30 31
10 10 10 10 9 9 9 9 9 9 8 8 9 9 10 11 12 13 14 15 15 15 16 17 18 19 20 21 21 22 22 23 24 25 25 26 26 26 27 28 29 30 31 31

GEFSNGP_500_meanwind_276.txt.gz
Wind_Speed
25 26 27 28 28 27 27 26 27 27 26 24 23 22 22 22 22 21 21 20 20 19 18 18 17 17 17 17 18 17 17 17 17 18 18 19 18 19 19 18 18 19 19 20
25 26 28 28 27 27 26 27 27 27 27 26 24 23 23 23 22 22 21 21 20 20 20 19 19 18 18 18 19 19 19 20 20 20 20 21 20 20 21 20 20 21 21 22
26 27 29 29 28 28 27 26 27 27 27 26 26 24 24 24 24 23 23 22 21 21 21 20 20 20 20 21 21 21 21 21 22 22 22 22 22 22 23 23 23 23 23 24
28 28 29 28 27 27 27 26 27 26 26 25 25 26 26 26 25 24 23 23 23 22 22 21 21 22 22 23 23 24 24 24 24 24 24 25 26 25 25 26 25 25 25 26
28 29 29 28 26 26 26 26 26 26 26 25 25 26 27 26 25 25 24 23 23 23 23 23 22 23 23 24 24 25 25 26 26 27 27 27 28 28 27 26 26 25 26 26
28 29 29 27 26 26 26 26 26 26 26 25 25 26 25 25 25 25 25 24 24 24 24 24 24 23 24 25 25 26 26 27 28 28 28 29 29 29 28 28 28 27 27 28
28 28 28 27 26 26 26 25 26 26 26 24 25 25 25 25 26 26 26 26 26 25 25 24 24 24 24 24 25 26 27 28 28 29 29 30 30 29 29 29 30 29 30 31
28 28 27 26 26 26 25 25 26 26 25 26 25 26 26 25 25 26 26 26 26 26 26 26 25 25 25 25 25 26 26 27 27 27 28 29 29 29 29 30 30 30 31 31
27 27 25 24 25 26 25 24 25 26 26 26 26 26 26 26 26 26 27 26 26 27 26 26 26 26 26 26 26 27 27 28 28 28 28 28 28 28 28 30 31 32 32 32
27 27 26 25 25 25 24 25 26 26 27 26 26 26 27 27 28 28 27 26 26 26 27 26 26 26 26 27 27 28 28 29 29 29 29 28 28 29 30 31 32 32 33 33
27 26 25 24 24 24 23 24 25 25 26 26 26 26 26 27 27 27 26 25 26 26 26 26 26 26 27 28 29 29 30 30 30 30 30 29 29 30 31 31 32 33 34 33
25 24 23 22 23 23 23 23 23 23 24 24 24 25 25 25 25 25 25 25 25 25 25 26 27 27 28 29 30 31 31 31 30 30 30 31 31 31 31 31 32 33 33 33
23 22 22 22 23 23 22 21 22 21 22 22 23 24 24 25 25 25 26 26 26 25 26 26 27 28 29 30 31 32 32 32 31 30 31 31 31 30 31 31 32 32 33 34
22 21 21 22 22 23 23 22 21 21 21 22 22 22 24 24 25 25 26 26 26 26 27 27 28 28 29 30 31 32 31 31 30 30 30 30 30 30 30 31 32 32 33 33
21 22 22 22 22 23 23 22 21 21 21 21 22 22 23 24 24 25 25 25 26 26 27 27 28 28 28 29 29 29 30 30 30 29 29 29 30 30 31 31 32 32 32 33
23 23 23 22 21 22 22 22 22 22 22 22 23 23 23 24 24 25 25 25 25 25 25 26 26 26 27 27 28 28 28 28 27 27 27 28 29 29 30 31 31 32 32 33
24 24 23 23 23 23 22 22 22 22 22 22 22 23 24 24 24 24 24 24 24 24 24 24 25 25 25 25 26 26 26 27 26 26 26 27 27 28 29 29 30 31 32 32
25 23 22 22 23 23 22 22 23 23 22 22 23 24 24 24 24 23 23 23 23 23 23 23 24 24 24 24 25 25 26 26 26 26 26 26 27 27 27 28 29 30 31 31
23 24 23 23 23 24 23 23 23 23 23 23 24 24 23 22 22 23 22 22 21 21 21 21 22 23 23 24 25 25 25 25 25 25 25 26 27 27 27 28 28 29 29 30
21 22 23 24 24 23 23 23 23 23 23 23 23 23 22 21 21 21 20 20 20 20 20 22 22 22 22 23 23 23 23 23 23 24 25 26 26 27 27 27 28 28 29 30
20 21 21 21 22 22 22 22 23 23 23 22 22 22 21 20 19 18 19 20 20 19 20 21 21 21 21 21 21 22 22 22 22 23 23 24 25 26 27 28 28 29 30 30
18 18 18 19 20 20 21 21 21 21 21 20 20 19 19 18 17 17 18 19 18 18 18 18 19 19 20 20 21 21 21 21 22 22 22 23 25 26 28 28 29 29 30 30
18 18 18 18 18 18 18 18 19 18 18 18 18 17 17 16 16 16 17 17 17 16 16 17 18 18 19 20 20 19 20 21 21 22 23 24 26 26 27 28 29 30 30 30
17 17 17 16 16 16 16 15 15 15 16 16 16 15 14 14 15 15 16 16 15 15 16 17 17 18 19 19 19 19 21 21 22 23 24 25 26 27 28 28 29 30 30 31
14 14 14 14 14 14 14 13 14 14 14 14 14 14 13 13 14 13 14 14 14 14 14 15 16 17 17 18 20 21 22 23 23 24 25 25 26 27 28 29 29 30 30 31
12 12 12 12 11 11 12 12 13 13 14 14 14 13 13 13 13 13 13 13 13 13 15 16 17 17 18 19 20 21 22 23 24 25 26 27 27 28 29 29 30 30 31 31
11 10 9 9 9 9 10 11 13 13 14 13 12 12 12 13 14 14 14 14 15 15 16 17 18 19 20 21 21 22 23 24 25 25 26 27 28 28 29 29 30 30 30 31